Change the Weather History Date:

Sunday, March 2, 2014

  Actual Average Record
Temperature  
Mean Temperature -6 °F -  
Max Temperature 0 °F 42 °F 74 °F (1974)
Min Temperature -13 °F 21 °F -13 °F (2014)
Degree Days  
Heating Degree Days 72    
Moisture  
Dew Point -16 °F    
Average Humidity 66    
Maximum Humidity 84    
Minimum Humidity 51    
Precipitation  
Precipitation 0.00 in - - ()
Sea Level Pressure  
Sea Level Pressure 30.57 in    
Wind  
Wind Speed 9 mph (NNW)    
Max Wind Speed 15 mph    
Max Gust Speed 20 mph    
Visibility 10 miles    
Events      
Averages and records for this station are not official NWS values.
T = Trace of Precipitation, MM = Missing Value Source: NWS Daily Summary

Daily Weather History Graph

Daily Weather History Graph

Search for Another Location

Airport or City:

Trip Planner

Search our weather history database for the weather conditions in past years. The results will help you decide how hot, cold, wet, or windy it might be!

Date:

Astronomy

Mar. 02, 2014 Rise Set
Actual Time 6:58 AM CST 6:15 PM CST
Civil Twilight 6:30 AM CST 6:43 PM CST
Nautical Twilight 5:57 AM CST 7:16 PM CST
Astronomical Twilight 5:25 AM CST 7:49 PM CST
Moon 7:27 AM CST (3/2) 8:16 PM CST (3/2)
Length of Visible Light 12h 13m
Length of Day
11h 16m
Waxing Crescent, 3% of the Moon is Illuminated
Mar 2
Waxing Crescent
Mar 8
First Quarter
Mar 16
Full
Mar 23
Last Quarter
Mar 30
New

Hourly Weather History & Observations

Time (CST) Temp. Windchill Dew Point Humidity Pressure Visibility Wind Dir Wind Speed Gust Speed Precip Events Conditions
12:15 AM -2.2 °F -22.2 °F -11.2 °F 66% 30.53 in 10.0 mi North 15.0 mph - N/A   Overcast
12:35 AM -4.0 °F -22.1 °F -11.2 °F 71% 30.54 in 10.0 mi North 11.5 mph - N/A   Overcast
12:55 AM -4.0 °F -23.7 °F -11.2 °F 71% 30.56 in 10.0 mi North 13.8 mph - N/A   Overcast
1:15 AM -4.0 °F -23.0 °F -13.0 °F 65% 30.55 in 10.0 mi North 12.7 mph - N/A   Overcast
1:35 AM -4.0 °F -23.0 °F -13.0 °F 65% 30.55 in 10.0 mi North 12.7 mph - N/A   Overcast
1:55 AM -4.0 °F -22.1 °F -13.0 °F 65% 30.56 in 10.0 mi North 11.5 mph 17.3 mph N/A   Overcast
2:15 AM -5.8 °F -24.4 °F -16.6 °F 60% 30.56 in 10.0 mi North 11.5 mph - N/A   Overcast
2:35 AM -7.6 °F -23.4 °F -16.6 °F 65% 30.56 in 10.0 mi NNW 8.1 mph - N/A   Mostly Cloudy
2:55 AM -7.6 °F -23.4 °F -18.4 °F 59% 30.57 in 10.0 mi NNW 8.1 mph - N/A   Scattered Clouds
3:15 AM -9.4 °F -24.3 °F -18.4 °F 65% 30.56 in 10.0 mi NNW 6.9 mph - N/A   Clear
3:35 AM -11.2 °F -26.4 °F -16.6 °F 77% 30.56 in 10.0 mi NNW 6.9 mph - N/A   Clear
3:55 AM -11.2 °F -26.4 °F -16.6 °F 77% 30.57 in 10.0 mi NW 6.9 mph - N/A   Clear
4:15 AM -11.2 °F -26.4 °F -16.6 °F 77% 30.57 in 10.0 mi NW 6.9 mph - N/A   Clear
4:35 AM -11.2 °F -26.4 °F -18.4 °F 70% 30.57 in 10.0 mi NW 6.9 mph - N/A   Clear
4:55 AM -13.0 °F -27.0 °F -18.4 °F 77% 30.57 in 10.0 mi NW 5.8 mph - N/A   Clear
5:15 AM -13.0 °F -25.1 °F -18.4 °F 77% 30.58 in 10.0 mi NW 4.6 mph - N/A   Clear
5:35 AM -13.0 °F -27.0 °F -18.4 °F 77% 30.58 in 10.0 mi NNW 5.8 mph - N/A   Clear
5:55 AM -13.0 °F -28.6 °F -18.4 °F 77% 30.58 in 10.0 mi NNW 6.9 mph - N/A   Partly Cloudy
6:15 AM -13.0 °F -28.6 °F -20.2 °F 70% 30.58 in 10.0 mi NW 6.9 mph - N/A   Partly Cloudy
6:35 AM -13.0 °F -27.0 °F -18.4 °F 77% 30.58 in 10.0 mi NNW 5.8 mph - N/A   Clear
6:55 AM -13.0 °F -28.6 °F -18.4 °F 77% 30.58 in 10.0 mi NNW 6.9 mph - N/A   Clear
7:15 AM -13.0 °F -30.0 °F -20.2 °F 70% 30.58 in 6.0 mi NNW 8.1 mph - N/A   Haze
7:35 AM -13.0 °F -28.6 °F -20.2 °F 70% 30.59 in 10.0 mi NNW 6.9 mph - N/A   Clear
7:55 AM -13.0 °F -27.0 °F -20.2 °F 70% 30.59 in 10.0 mi NNW 5.8 mph - N/A   Clear
8:15 AM -11.2 °F -23.0 °F -18.4 °F 70% 30.59 in 10.0 mi NNW 4.6 mph - N/A   Clear
8:35 AM -11.2 °F -27.8 °F -18.4 °F 70% 30.60 in 10.0 mi NW 8.1 mph - N/A   Clear
8:55 AM -9.4 °F -25.6 °F -18.4 °F 65% 30.60 in 10.0 mi NNW 8.1 mph - N/A   Clear
9:15 AM -9.4 °F -28.9 °F -18.4 °F 65% 30.60 in 10.0 mi NNW 11.5 mph - N/A   Clear
9:35 AM -9.4 °F -27.9 °F -18.4 °F 65% 30.62 in 10.0 mi NW 10.4 mph - N/A   Clear
9:55 AM -9.4 °F -26.8 °F -18.4 °F 65% 30.62 in 10.0 mi NNW 9.2 mph - N/A   Clear
10:15 AM -7.6 °F -24.6 °F -18.4 °F 59% 30.63 in 10.0 mi NNW 9.2 mph - N/A   Clear
10:35 AM -7.6 °F -23.4 °F -18.4 °F 59% 30.63 in 10.0 mi NNW 8.1 mph - N/A   Clear
10:55 AM -7.6 °F -23.4 °F -16.6 °F 65% 30.63 in 10.0 mi NNW 8.1 mph - N/A   Partly Cloudy
11:15 AM -7.6 °F -25.7 °F -18.4 °F 59% 30.63 in 10.0 mi NNW 10.4 mph - N/A   Partly Cloudy
11:35 AM -7.6 °F -25.7 °F -16.6 °F 65% 30.62 in 10.0 mi NNW 10.4 mph - N/A   Clear
11:55 AM -5.8 °F -24.4 °F -16.6 °F 60% 30.62 in 10.0 mi NNW 11.5 mph - N/A   Clear
12:15 PM -5.8 °F -25.2 °F -16.6 °F 60% 30.62 in 10.0 mi NW 12.7 mph - N/A   Clear
12:35 PM -5.8 °F -24.4 °F -16.6 °F 60% 30.60 in 10.0 mi NNW 11.5 mph - N/A   Clear
12:55 PM -4.0 °F -21.2 °F -14.8 °F 60% 30.58 in 10.0 mi NNW 10.4 mph - N/A   Clear
1:15 PM -4.0 °F -21.2 °F -14.8 °F 60% 30.58 in 10.0 mi NNW 10.4 mph - N/A   Clear
1:30 PM -4.0 °F -20.2 °F -14.8 °F 60% 30.59 in 10.0 mi NNW 9.2 mph - N/A   Clear
1:55 PM -2.2 °F -18.9 °F -14.8 °F 55% 30.59 in 10.0 mi NNW 10.4 mph - N/A   Clear
2:15 PM -2.2 °F -18.9 °F -14.8 °F 55% 30.58 in 10.0 mi NW 10.4 mph - N/A   Clear
2:35 PM -2.2 °F -21.5 °F -14.8 °F 55% 30.58 in 10.0 mi NNW 13.8 mph - N/A   Clear
2:55 PM -0.4 °F -19.2 °F -14.8 °F 51% 30.57 in 10.0 mi NNW 13.8 mph - N/A   Clear
3:15 PM -0.4 °F -19.2 °F -14.8 °F 51% 30.57 in 10.0 mi NNW 13.8 mph - N/A   Clear
3:35 PM -0.4 °F -19.2 °F -14.8 °F 51% 30.56 in 10.0 mi NNW 13.8 mph 19.6 mph N/A   Clear
3:55 PM -0.4 °F -19.2 °F -14.8 °F 51% 30.55 in 10.0 mi NNW 13.8 mph - N/A   Clear
4:15 PM -0.4 °F -17.6 °F -14.8 °F 51% 30.55 in 10.0 mi NNW 11.5 mph - N/A   Clear
4:35 PM -0.4 °F -17.6 °F -14.8 °F 51% 30.54 in 10.0 mi NNW 11.5 mph - N/A   Clear
4:55 PM -0.4 °F -16.7 °F -14.8 °F 51% 30.54 in 10.0 mi NNW 10.4 mph - N/A   Clear
5:15 PM -0.4 °F -16.7 °F -14.8 °F 51% 30.54 in 10.0 mi NNW 10.4 mph - N/A   Clear
5:35 PM -0.4 °F -14.7 °F -13.0 °F 55% 30.54 in 10.0 mi NNW 8.1 mph - N/A   Clear
5:55 PM -2.2 °F -16.8 °F -13.0 °F 60% 30.54 in 10.0 mi NW 8.1 mph - N/A   Clear
6:10 PM -2.2 °F -14.2 °F -13.0 °F 60% 30.54 in 10.0 mi NNW 5.8 mph - N/A   Clear
6:35 PM -4.0 °F -16.3 °F -13.0 °F 65% 30.54 in 10.0 mi WNW 5.8 mph - N/A   Clear
6:55 PM -5.8 °F - -14.8 °F 65% 30.53 in 10.0 mi Calm Calm - N/A   Clear
7:15 PM -5.8 °F -16.7 °F -14.8 °F 65% 30.53 in 10.0 mi NW 4.6 mph - N/A   Clear
7:35 PM -5.8 °F - -14.8 °F 65% 30.53 in 10.0 mi Calm Calm - N/A   Clear
7:55 PM -5.8 °F - -14.8 °F 65% 30.54 in 10.0 mi Calm Calm - N/A   Clear
8:15 PM -7.6 °F - -16.6 °F 65% 30.54 in 10.0 mi Calm Calm - N/A   Clear
8:35 PM -7.6 °F - -14.8 °F 71% 30.55 in 10.0 mi Calm Calm - N/A   Clear
8:55 PM -11.2 °F - -16.6 °F 77% 30.56 in 10.0 mi Calm Calm - N/A   Clear
9:15 PM -11.2 °F - -16.6 °F 77% 30.56 in 10.0 mi Calm Calm - N/A   Clear
9:35 PM -9.4 °F - -16.6 °F 71% 30.57 in 10.0 mi Calm Calm - N/A   Clear
9:55 PM -11.2 °F - -16.6 °F 77% 30.57 in 10.0 mi Calm Calm - N/A   Clear
10:15 PM -9.4 °F - -16.6 °F 71% 30.57 in 10.0 mi Calm Calm - N/A   Clear
10:35 PM -9.4 °F - -16.6 °F 71% 30.56 in 10.0 mi Calm Calm - N/A   Clear
10:55 PM -11.2 °F - -16.6 °F 77% 30.56 in 10.0 mi Calm Calm - N/A   Clear
11:15 PM -13.0 °F - -16.6 °F 84% 30.56 in 10.0 mi Calm Calm - N/A   Clear
11:35 PM -13.0 °F - -18.4 °F 77% 30.56 in 10.0 mi Calm Calm - N/A   Clear
11:55 PM -13.0 °F - -18.4 °F 77% 30.56 in 10.0 mi Calm Calm - N/A   Clear